Forks, WA

3:59 PM PST on February 19, 2017 (GMT -0800)
Quillayute

Weather History for KUIL - November, 2011

Change the Weather History Date:

Sunday, November 20, 2011

  Actual Average Record
Temperature  
Mean Temperature 32 °F 43 °F  
Max Temperature 40 °F 49 °F 63 °F (1987)
Min Temperature 23 °F 38 °F 19 °F (1985)
Degree Days  
Heating Degree Days 33 22  
Month to date heating degree days 398  
Since 1 July heating degree days 1488  
Cooling Degree Days 0 0  
Month to date cooling degree days 0  
Year to date cooling degree days 19  
Moisture  
Dew Point 28 °F    
Average Humidity 86    
Maximum Humidity 96    
Minimum Humidity 75    
Precipitation  
Precipitation 0.00 in 0.54 in 4.18 in (1980)
Month to date precipitation 10.25  
Year to date precipitation 81.28  
Sea Level Pressure  
Sea Level Pressure 29.86 in    
Wind  
Wind Speed 5 mph (East)    
Max Wind Speed 13 mph    
Max Gust Speed 18 mph    
Visibility 10 miles    
Events      
T = Trace of Precipitation, MM = Missing Value Source: NWS Daily Summary

Daily Weather History Graph

Daily Weather History Graph

Search for Another Location

Airport or City:

Trip Planner

Search our weather history database for the weather conditions in past years. The results will help you decide how hot, cold, wet, or windy it might be!

Date:

Astronomy

Nov. 20, 2011 Rise Set
Actual Time 7:31 AM PST 4:35 PM PST
Civil Twilight 6:57 AM PST 5:09 PM PST
Nautical Twilight 6:19 AM PST 5:48 PM PST
Astronomical Twilight 5:42 AM PST 6:24 PM PST
Moon 1:45 AM PST (11/20) 1:46 PM PST (11/20)
Length of Visible Light 10h 12m
Length of Day
9h 04m
Waning Crescent, 26% of the Moon is Illuminated
Nov 20
Waning Crescent
Nov 24
New
Dec 2
First Quarter
Dec 10
Full
Dec 17
Last Quarter

Hourly Weather History & Observations

Time (PST) Temp. Windchill Dew Point Humidity Pressure Visibility Wind Dir Wind Speed Gust Speed Precip Events Conditions
12:53 AM 27.0 °F 23.0 °F 26.1 °F 96% 29.94 in 10.0 mi East 3.5 mph - N/A   Clear
1:53 AM 27.0 °F - 25.0 °F 92% 29.92 in 10.0 mi Calm Calm - N/A   Clear
2:53 AM 24.1 °F - 21.9 °F 91% 29.93 in 10.0 mi Calm Calm - N/A   Clear
3:53 AM 25.0 °F - 23.0 °F 92% 29.93 in 10.0 mi Calm Calm - N/A   Clear
4:53 AM 28.0 °F 21.7 °F 26.1 °F 92% 29.93 in 10.0 mi East 5.8 mph - N/A   Mostly Cloudy
5:00 AM - - - N/A% - - North - - N/A   Unknown
5:53 AM 28.0 °F 22.8 °F 25.0 °F 88% 29.92 in 10.0 mi ESE 4.6 mph - N/A   Mostly Cloudy
6:53 AM 28.9 °F 21.9 °F 25.0 °F 85% 29.93 in 10.0 mi ENE 6.9 mph - N/A   Clear
7:53 AM 25.0 °F 20.7 °F 23.0 °F 92% 29.94 in 10.0 mi ENE 3.5 mph - N/A   Clear
8:20 AM 28.4 °F 22.2 °F 26.6 °F 93% 29.94 in 10.0 mi East 5.8 mph - N/A   Mostly Cloudy
8:28 AM 28.4 °F 21.2 °F 26.6 °F 93% 29.94 in 10.0 mi East 6.9 mph - N/A   Scattered Clouds
8:53 AM 30.0 °F 24.1 °F 27.0 °F 88% 29.94 in 10.0 mi East 5.8 mph - N/A   Clear
9:53 AM 32.0 °F 26.4 °F 28.0 °F 85% 29.93 in 10.0 mi East 5.8 mph - N/A   Clear
10:53 AM 35.1 °F 30.1 °F 30.0 °F 82% 29.94 in 10.0 mi East 5.8 mph - N/A   Clear
11:53 AM 37.0 °F 34.5 °F 30.9 °F 79% 29.92 in 10.0 mi East 3.5 mph - N/A   Clear
12:53 PM 37.0 °F 33.3 °F 32.0 °F 82% 29.90 in 10.0 mi East 4.6 mph - N/A   Clear
1:53 PM 37.0 °F 32.4 °F 32.0 °F 82% 29.89 in 10.0 mi East 5.8 mph - N/A   Clear
2:53 PM 37.0 °F 32.4 °F 30.9 °F 79% 29.86 in 10.0 mi ENE 5.8 mph - N/A   Clear
3:53 PM 36.0 °F - 30.9 °F 82% 29.85 in 10.0 mi Calm Calm - N/A   Partly Cloudy
4:53 PM 35.1 °F 29.3 °F 30.9 °F 85% 29.82 in 10.0 mi East 6.9 mph - N/A   Mostly Cloudy
5:53 PM 34.0 °F 31.0 °F 30.9 °F 89% 29.83 in 10.0 mi ENE 3.5 mph - N/A   Overcast
6:53 PM 34.0 °F 29.8 °F 30.9 °F 89% 29.80 in 10.0 mi East 4.6 mph - N/A   Overcast
7:53 PM 34.0 °F 28.0 °F 30.9 °F 89% 29.77 in 10.0 mi ENE 6.9 mph - N/A   Partly Cloudy
8:53 PM 33.1 °F 27.7 °F 30.0 °F 89% 29.76 in 10.0 mi East 5.8 mph - N/A   Partly Cloudy
9:53 PM 34.0 °F 28.8 °F 30.0 °F 85% 29.75 in 10.0 mi ENE 5.8 mph - N/A   Mostly Cloudy
10:13 PM 33.8 °F 28.6 °F 30.2 °F 87% 29.73 in 10.0 mi ENE 5.8 mph - N/A   Scattered Clouds
10:53 PM 37.0 °F 33.3 °F 30.0 °F 76% 29.72 in 10.0 mi East 4.6 mph - N/A   Overcast
11:33 PM 37.4 °F 32.1 °F 30.2 °F 75% 29.69 in 10.0 mi ESE 6.9 mph - N/A   Overcast
11:53 PM 39.0 °F 32.8 °F 32.0 °F 76% 29.68 in 10.0 mi SE 9.2 mph 16.1 mph N/A   Overcast